Regional Weather Roundup
Issued by NWS

Home | Current Version | Previous Version | Graphics & Text | Print | Product List | Glossary On
Versions: 1 2 3 4 5 6 7 8 9 10 11 12 13 14 15 16 17 18 19 20 21 22 23 24 25 26 27 28 29 30 31 32 33 34 35 36 37 38 39 40 41 42 43 44 45 46 47 48 49 50
000
ASUS43 KDTX 282101
RWRMI
MICHIGAN HOURLY REGIONAL WEATHER ROUNDUP
NATIONAL WEATHER SERVICE DETROIT/PONTIAC MI
500 PM EDT SUN MAY 28 2017

NOTE: "FAIR" INDICATES FEW OR NO CLOUDS BELOW 12,000 FEET WITH NO
SIGNIFICANT WEATHER AND/OR OBSTRUCTION TO VISIBILITY.

MIZ047>049-052>055-059>063-066>070-074>076-081>083-282200-
SOUTHEAST LOWER MICHIGAN

CITY           SKY/WX    TMP DP  RH WIND       PRES   REMARKS
ADRIAN         LGT RAIN  63  58  83 S8        29.70R
ALMA           PTSUNNY   73  57  58 NW6       29.67F
ANN ARBOR      TSTM      69  66  90 SE8       29.66F FOG
BAD AXE        PTSUNNY   76  53  44 S5        29.68F
CARO           PTSUNNY   77  56  49 SW3       29.66F
DETROIT CITY   LGT RAIN  73  62  68 E8        29.67F
DETROIT        TSTM      69  63  81 S9        29.69S
FLINT          PTSUNNY   75  60  59 S7        29.66F
GROSSE ILE     CLOUDY    68  61  78 SE8       29.68F
HILLSDALE      CLOUDY    61  59  94 CALM      29.68F
HOWELL         CLOUDY    68  63  83 W3        29.67F

CITY           SKY/WX    TMP DP  RH WIND       PRES   REMARKS
JACKSON        PTSUNNY   74  63  68 SW12      29.67F
LAMBERTVILLE   LGT RAIN  65  61  85 SE5       29.69R
LANSING        CLOUDY    80  55  42 W5        29.66F
LAPEER         FAIR      77  56  47 SW6       29.67F
MASON          CLOUDY    75  63  66 SE8       29.66F
MONROE         LGT RAIN  65  59  82 E9        29.69S
MT. CLEMENS    PTSUNNY   73  63  72 SE7       29.67F
PONTIAC        LGT RAIN  75  59  57 SE8       29.67F
PORT HOPE        N/A     61  55  81 E14       29.67F
PORT HURON     MOSUNNY   75  59  57 S6        29.68F
TRI CITIES     CLOUDY    77  56  48 SW3       29.66F
MIDLAND        FAIR      76  55  48 NW5       29.64F
TROY           PTSUNNY   77  58  52 SE3       29.69F
SAGINAW HB     MOSUNNY   81  50  34 S10       29.65F
$$
MIZ043>046-050>051-056>058-064>065-071>073-077>080-282200-
SOUTHWEST LOWER MICHIGAN

CITY           SKY/WX    TMP DP  RH WIND       PRES   REMARKS
BATTLE CREEK   CLOUDY    77  61  57 N12       29.69R
BENTON HARBOR  CLOUDY    67  56  67 W6        29.72R
BIG RAPIDS     PTSUNNY   69  57  63 W12G17    29.68F
COLDWATER      PTSUNNY   70  66  87 SE5       29.68S
FREMONT        FAIR      70  56  61 W8        29.69F
HOLLAND        CLOUDY    70  54  56 NW10      29.71S
GRAND RAPIDS   PTSUNNY   76  59  55 W15       29.68F
IONIA          PTSUNNY   76  57  51 W7        29.67S
KALAMAZOO      MOSUNNY   76  57  51 W8        29.68S
LUDINGTON      SUNNY     63  57  80 SW9       29.69S
MARSHALL       CLOUDY    76  58  53 W7        29.66F
MOUNT PLEASANT MOSUNNY   72  56  56 W3        29.66F
MUSKEGON       CLOUDY    70  55  59 W10       29.70S
SOUTH HAVEN    CLOUDY    68  57  68 NW9       29.71S
$$
MIZ016>042-282200-
NORTHERN LOWER MICHIGAN

CITY           SKY/WX    TMP DP  RH WIND       PRES   REMARKS
ALPENA         LGT RAIN  60  59  96 NE7       29.70F
BEAVER ISLAND  CLOUDY    62  58  85 SE6       29.65F
BELLAIRE       MOSUNNY   63  58  82 CALM      29.67F
CADILLAC       MOSUNNY   68  56  66 SW10G17   29.68S
CHARLEVOIX     CLOUDY    60  59  99 E6        29.69F
FRANKFORT      SUNNY     62  55  78 W6        29.68S
GAYLORD        CLOUDY    64  54  69 SW5       29.68F
GRAYLING       PTSUNNY   64  59  83 CALM      29.69S
HARBOR SPRINGS CLOUDY    59  59  99 E7        29.67F
HOUGHTON LAKE  MOSUNNY   64  57  78 W6        29.69S
MANISTEE       SUNNY     67  56  67 W10       29.68S
OSCODA         CLOUDY    66  51  58 SE7       29.68F
PELLSTON       CLOUDY    61  56  83 E3        29.67F
ROGERS CITY    CLOUDY    49  49  97 NE3       29.71F FOG
TRAVERSE CITY  PTSUNNY   65  58  78 N7        29.65F
$$
MIZ007>008-015-282200-
EASTERN UPPER MICHIGAN

CITY           SKY/WX    TMP DP  RH WIND       PRES   REMARKS
KINROSS        LGT RAIN  57  56  96 SE8       29.68F
MACKINAC ISLAN CLOUDY    55  55 100 E5        29.68F FOG
NEWBERRY       CLOUDY    58  57  97 E6        29.64F
S. S. MARIE    LGT RAIN  58  56  93 E6        29.68F
MUNISING         N/A     57  53  86 NW6       29.61F
$$
MIZ004>006-011>014-085-282200-
CENTRAL UPPER MICHIGAN

CITY           SKY/WX    TMP DP  RH WIND       PRES   REMARKS
MANISTIQUE     CLOUDY    50  47  89 S7        29.65F FOG
ESCANABA       CLOUDY    55  52  89 SE9       29.64F
SAWYER-GWINN   CLOUDY    64  52  63 S7        29.62S
$$
MIZ001>003-009>011-084-282200-
WESTERN UPPER MICHIGAN

CITY           SKY/WX    TMP DP  RH WIND       PRES   REMARKS
IRON MOUNTAIN  LGT RAIN  59  54  83 W5        29.62R
HOUGHTON       RAIN      52  49  89 NW12      29.65F FOG
COPPER HARBOR    N/A     51  45  79 CALM      29.62S
IRONWOOD       MOSUNNY   61  51  70 W14       29.65F
$$

ABBREVIATIONS USED IN REMARKS
   TC - TEMPERATURE IN CELSIUS
  WCI - WIND CHILL INDEX
   HX - HEAT INDEX
  VSB - VISIBILITY




USA.gov is the U.S. government's official web portal to all federal, state and local government web resources and services.